sat.trackr.live / text

‹ back to catalog

STARLINK-2494

NORAD 48487 · 2021-040BM

PAYLOAD ACTIVE UNKNOWN

§ Identity

Operator
Country
US
Launch date
2021-05-09
Launch site
AFETR
Launch vehicle
Mass (kg)
RCS (m²)

Purposes: comms

External: N2YO · Heavens-Above · Gunter

§ Orbital elements

Epoch: 2026-05-24T12:22:50.177856Z

Period
94.01 min
Inclination
53.1591°
Eccentricity
0.0000764
Mean motion
15.31713843 rev/d
Perigee alt
470.2 km
Apogee alt
471.2 km
Semi-major
6,848.8 km
B*
1.3564e-4
RAAN
201.3680°
Arg perigee
91.3821°
Mean anomaly
268.7268°
Rev number
27,808

§ Raw data

STARLINK-24941 48487U 21040BM  26144.51585854  .00003848  00000+0  13564-3 0  99902 48487  53.1591 201.3680 0000764  91.3821 268.7268 15.31713843278088

JSON: /api/v1/satellites/48487 · /tle

For live sub-satellite position, see the globe view (requires WebGL).

§ Visibility from observer

Set your observer location to see the next 7 days of passes ≥ 10°. The values pass through the URL so the page stays shareable.

No JS? Fill the form by hand. The geolocation button needs JavaScript.